TimeCDT,TemperatureF,Dew PointF,Humidity,Sea Level PressureIn,VisibilityMPH,Wind Direction,Wind SpeedMPH,Gust SpeedMPH,PrecipitationIn,Events,Conditions,WindDirDegrees,DateUTC
12:15 AM,59.0,55.4,88,30.04,5.0,SW,3.5,-,N/A,,Clear,230,2013-08-12 05:15:00
12:35 AM,57.2,55.4,94,30.04,2.0,SSW,3.5,-,N/A,,Clear,200,2013-08-12 05:35:00
12:55 AM,57.2,55.4,94,30.04,1.0,SSW,3.5,-,N/A,,Clear,200,2013-08-12 05:55:00
1:15 AM,57.2,57.2,100,30.03,0.5,Calm,Calm,-,N/A,,Mostly Cloudy,0,2013-08-12 06:15:00
1:35 AM,57.2,55.4,94,30.03,0.5,South,4.6,-,N/A,,Mostly Cloudy,180,2013-08-12 06:35:00
1:55 AM,55.4,55.4,100,30.02,0.5,SSW,5.8,-,N/A,,Overcast,200,2013-08-12 06:55:00
2:15 AM,57.2,55.4,94,30.02,0.5,SW,3.5,-,N/A,,Overcast,220,2013-08-12 07:15:00
2:35 AM,57.2,57.2,100,30.02,0.2,Calm,Calm,-,N/A,,Overcast,0,2013-08-12 07:35:00
2:55 AM,57.2,57.2,100,30.02,0.2,SSW,4.6,-,N/A,,Overcast,210,2013-08-12 07:55:00
3:15 AM,57.2,55.4,94,30.01,0.2,SSW,5.8,-,N/A,,Overcast,200,2013-08-12 08:15:00
3:35 AM,59.0,57.2,94,30.01,0.2,SSW,5.8,-,N/A,,Overcast,200,2013-08-12 08:35:00
3:55 AM,59.0,57.2,94,30.00,0.2,SSW,4.6,-,N/A,,Overcast,210,2013-08-12 08:55:00
4:15 AM,59.0,57.2,94,30.00,0.2,SW,4.6,-,N/A,,Overcast,220,2013-08-12 09:15:00
4:35 AM,60.8,57.2,88,30.00,0.2,SSW,5.8,-,N/A,,Overcast,210,2013-08-12 09:35:00
4:55 AM,60.8,57.2,88,29.99,0.2,SW,4.6,-,N/A,,Overcast,220,2013-08-12 09:55:00
5:15 AM,60.8,57.2,88,29.99,0.2,SSW,4.6,-,N/A,,Overcast,210,2013-08-12 10:15:00
5:35 AM,60.8,57.2,88,29.99,0.2,SSW,4.6,-,N/A,,Overcast,210,2013-08-12 10:35:00
5:55 AM,60.8,57.2,88,29.99,0.2,SSW,4.6,-,N/A,,Overcast,210,2013-08-12 10:55:00
6:15 AM,60.8,57.2,88,29.99,0.2,SSW,3.5,-,N/A,,Overcast,210,2013-08-12 11:15:00
6:35 AM,60.8,57.2,88,29.99,0.2,SSW,4.6,-,N/A,,Overcast,200,2013-08-12 11:35:00
6:55 AM,60.8,59.0,94,29.99,0.2,SSW,4.6,-,N/A,,Overcast,210,2013-08-12 11:55:00
7:15 AM,60.8,59.0,94,29.99,0.2,SW,6.9,-,N/A,,Overcast,230,2013-08-12 12:15:00
7:35 AM,60.8,60.8,100,29.99,0.8,WSW,6.9,-,N/A,,Overcast,240,2013-08-12 12:35:00
7:55 AM,62.6,60.8,94,29.98,1.0,WSW,5.8,-,N/A,,Overcast,250,2013-08-12 12:55:00
8:15 AM,62.6,60.8,94,29.98,1.5,West,4.6,-,N/A,,Overcast,270,2013-08-12 13:15:00
8:35 AM,62.6,62.6,100,29.98,5.0,West,4.6,-,N/A,,Overcast,260,2013-08-12 13:35:00
8:55 AM,64.4,62.6,94,29.97,10.0,WSW,4.6,-,N/A,,Mostly Cloudy,240,2013-08-12 13:55:00
9:15 AM,64.4,64.4,100,29.97,10.0,WSW,5.8,-,N/A,,Mostly Cloudy,250,2013-08-12 14:15:00
9:35 AM,66.2,62.6,88,29.96,10.0,South,4.6,-,N/A,,Overcast,170,2013-08-12 14:35:00
9:55 AM,68.0,62.6,83,29.96,10.0,WSW,4.6,-,N/A,,Mostly Cloudy,240,2013-08-12 14:55:00
10:15 AM,68.0,62.6,83,29.96,10.0,West,5.8,-,N/A,,Overcast,260,2013-08-12 15:15:00
10:35 AM,69.8,64.4,83,29.96,10.0,WSW,6.9,-,N/A,,Mostly Cloudy,250,2013-08-12 15:35:00
10:55 AM,69.8,62.6,78,29.95,10.0,West,6.9,-,N/A,,Scattered Clouds,280,2013-08-12 15:55:00
11:15 AM,71.6,64.4,78,29.96,10.0,SSW,5.8,-,N/A,,Mostly Cloudy,210,2013-08-12 16:15:00
11:35 AM,71.6,62.6,73,29.95,10.0,WNW,4.6,-,N/A,,Mostly Cloudy,290,2013-08-12 16:35:00
11:55 AM,73.4,62.6,69,29.95,10.0,West,6.9,-,N/A,,Mostly Cloudy,270,2013-08-12 16:55:00
12:15 PM,73.4,62.6,69,29.94,10.0,WNW,8.1,-,N/A,,Overcast,290,2013-08-12 17:15:00
12:35 PM,71.6,60.8,69,29.94,10.0,West,6.9,-,N/A,,Overcast,280,2013-08-12 17:35:00
12:55 PM,73.4,60.8,65,29.95,10.0,West,8.1,-,N/A,,Mostly Cloudy,280,2013-08-12 17:55:00
1:15 PM,73.4,59.0,61,29.94,10.0,WNW,9.2,-,N/A,,Scattered Clouds,300,2013-08-12 18:15:00
1:35 PM,73.4,57.2,57,29.94,10.0,WNW,6.9,-,N/A,,Partly Cloudy,300,2013-08-12 18:35:00
1:55 PM,71.6,57.2,60,29.94,10.0,NW,8.1,-,N/A,,Mostly Cloudy,310,2013-08-12 18:55:00
2:15 PM,73.4,59.0,61,29.93,10.0,NW,4.6,-,N/A,,Overcast,320,2013-08-12 19:15:00
2:35 PM,73.4,57.2,57,29.92,10.0,WSW,3.5,-,N/A,,Partly Cloudy,240,2013-08-12 19:35:00
2:55 PM,73.4,57.2,57,29.92,10.0,WNW,5.8,-,N/A,,Partly Cloudy,290,2013-08-12 19:55:00
3:15 PM,73.4,57.2,57,29.92,10.0,NW,9.2,-,N/A,,Mostly Cloudy,320,2013-08-12 20:15:00
3:35 PM,73.4,57.2,57,29.91,10.0,West,4.6,-,N/A,,Scattered Clouds,280,2013-08-12 20:35:00
3:55 PM,75.2,57.2,53,29.91,10.0,West,5.8,-,N/A,,Partly Cloudy,280,2013-08-12 20:55:00
4:15 PM,75.2,57.2,53,29.90,10.0,NW,8.1,-,N/A,,Clear,310,2013-08-12 21:15:00
4:35 PM,73.4,57.2,57,29.91,10.0,NNW,12.7,-,N/A,,Scattered Clouds,330,2013-08-12 21:35:00
4:55 PM,64.4,57.2,77,29.93,9.0,North,11.5,-,0.02,,Mostly Cloudy,10,2013-08-12 21:55:00
5:15 PM,62.6,57.2,82,29.93,10.0,NNE,6.9,-,0.01,,Overcast,20,2013-08-12 22:15:00
5:35 PM,66.2,60.8,83,29.93,10.0,NNE,9.2,-,0.01,,Mostly Cloudy,30,2013-08-12 22:35:00
5:55 PM,66.2,59.0,78,29.93,10.0,NE,9.2,-,0.01,,Scattered Clouds,40,2013-08-12 22:55:00
6:15 PM,66.2,57.2,73,29.94,10.0,NE,13.8,-,N/A,,Partly Cloudy,40,2013-08-12 23:15:00
6:35 PM,64.4,57.2,77,29.95,10.0,NE,9.2,-,N/A,,Scattered Clouds,40,2013-08-12 23:35:00
6:55 PM,64.4,57.2,77,29.96,10.0,NNE,11.5,21.9,N/A,,Mostly Cloudy,20,2013-08-12 23:55:00
7:15 PM,62.6,55.4,77,29.96,10.0,NE,19.6,24.2,N/A,,Mostly Cloudy,40,2013-08-13 00:15:00
7:35 PM,60.8,55.4,82,29.97,10.0,NNE,16.1,23.0,N/A,,Partly Cloudy,20,2013-08-13 00:35:00
7:55 PM,60.8,53.6,77,29.98,10.0,NE,16.1,21.9,N/A,,Scattered Clouds,40,2013-08-13 00:55:00
8:15 PM,59.0,51.8,77,29.99,10.0,NNE,16.1,20.7,N/A,,Scattered Clouds,30,2013-08-13 01:15:00
8:35 PM,59.0,51.8,77,30.00,10.0,NNE,12.7,20.7,N/A,,Partly Cloudy,20,2013-08-13 01:35:00
8:55 PM,57.2,50.0,77,30.01,10.0,NNE,13.8,18.4,N/A,,Clear,30,2013-08-13 01:55:00
9:15 PM,57.2,48.2,72,30.02,10.0,North,18.4,26.5,N/A,,Clear,10,2013-08-13 02:15:00
9:35 PM,57.2,46.4,67,30.02,10.0,NNE,16.1,19.6,N/A,,Clear,20,2013-08-13 02:35:00
9:55 PM,57.2,44.6,63,30.02,10.0,North,13.8,19.6,N/A,,Clear,10,2013-08-13 02:55:00
10:15 PM,57.2,44.6,63,30.03,10.0,North,18.4,25.3,N/A,,Clear,10,2013-08-13 03:15:00
10:35 PM,57.2,44.6,63,30.03,10.0,North,15.0,23.0,N/A,,Clear,10,2013-08-13 03:35:00
10:55 PM,57.2,44.6,63,30.03,10.0,North,12.7,19.6,N/A,,Clear,10,2013-08-13 03:55:00